Location: Moscow
(55.7500°N, 37.5830°E)
Time: 17:39:18
(UTC+03:00)

N. Korean satellite - Visible Passes

Search period start: 25 February 2021 00:00
Search period end: 07 March 2021 00:00
Orbit: 451 x 503 km, 97.2° (Epoch: 24 February)

Date Brightness Start Highest point End Pass type
(mag) Time Alt. Az. Time Alt. Az. Time Alt. Az.
25 Feb 9.8 04:50:28 10° ENE 04:52:02 12° E 04:53:35 10° ESE visible
25 Feb 6.4 06:22:21 10° NNE 06:25:48 76° WNW 06:29:18 10° SSW visible
26 Feb 7.3 05:55:38 10° NNE 05:59:04 55° E 06:02:31 10° S visible
27 Feb 8.6 05:29:07 10° NNE 05:32:14 29° E 05:35:21 10° SSE visible
28 Feb 9.6 05:02:57 10° NE 05:05:17 17° E 05:07:38 10° SE visible
28 Feb 6.6 06:35:30 10° N 06:38:55 55° WNW 06:42:22 10° SSW visible
01 Mar 6.7 06:08:41 10° NNE 06:12:12 77° ESE 06:15:44 10° S visible
02 Mar 8.0 05:42:03 10° NNE 05:45:23 40° E 05:48:45 10° S visible
03 Mar 9.2 05:15:39 10° NE 05:18:28 22° E 05:21:19 10° SE visible
04 Mar 9.9 04:49:48 10° ENE 04:51:28 13° E 04:53:08 10° ESE visible
04 Mar 6.5 06:21:43 10° NNE 06:25:15 77° WNW 06:28:49 10° SSW visible
05 Mar 7.3 05:54:58 10° NNE 05:58:28 55° ESE 06:01:58 10° S visible
06 Mar 8.7 05:28:25 10° NNE 05:31:35 29° E 05:34:45 10° SSE visible
